AEROCUBE 12A (43556 NORAD) Tracking and Keplerian Element Data

This shows tracking and keplerian element data for the satellite.

Feedback or suggestion? Click here.




ElementValue
Catalog43556
NameAEROCUBE 12A
Epoch Orbit5524
Epoch Day193.77394745
Epoch Year2019
RAAN301.1315
Inclination51.643
Eccentricity0.000877
Argument of Perigee154.0165
Mean Anonmoly206.1257
Mean Motion15.28762343
Decay Rate1.751E-05
L11 43556U 18046C 19193.77394745 .00001751 00000-0 74314-4 0 9998
L22 43556 51.6430 301.1315 0008770 154.0165 206.1257 15.28762343 55242

Live tracking and technical data element details for AEROCUBE 12A (NORAD 43556). AEROCUBE 12A can be tracked NOW for your location showing map with azimuth and elevation plus other details from your city location.

Track the satellite on the map from your city or location and see movement details for azimuth, elevation, latitude, longitude, range, height, and movement on the map or in text.







IsCatalogInMostPopularTable: catalog: 43556, numindb: 191
Update: records affected: 1



GetName: 43556 AEROCUBE 12A

Hit Count: updated at: Mon, 15 Jul 2019 22:56:54 GMT